Bozeman Yellowstone International Airport

Airport
ICAO code: 
KBZN
Summary
ICAO Region: 
NAM
Territory: 
Location: 
Belgrade, Gallatin County, Montana,
Coordinates: 
Aerial View: 
45° 46' 37.133" N, 111° 9' 37.519" W
Airport CFIT: 
Altimeter Temperature Error Correction
Airport RE: 
Hot and High Operations
Metar
Observation
KBZN 240656Z AUTO 18003KT 10SM CLR M04/M09 A3006 RMK AO2 SLP224 T10391094 400061144
Station
Bozeman, Gallatin Field
Date/Time
2022-01-24 06:56:00
Wind direction
180°
Wind speed
03 kts
Lowest cloud amount
n/a
Temperature
-3.9°C
Dew point
-9.4°C
Humidity
65%
Weather condition
n/a

Description

Bozeman Yellowstone International Airport, formerly known as Gallatin Field Airport, is a public-use airport located 13 km northwest of the central business district of Bozeman, a city in Gallatin County, Montana, United States. It is owned by the Gallatin Airport Authority. The airport is situated in Belgrade, Montana and serves Bozeman, Big Sky, Southwestern Montana and Yellowstone National Park.

Climatology

Continental climate (Köppen climate classification DFb) with cold winters and warm, dry summers.

Runways

Designator Length Width Surface Rops
3/21 808 23 ASP Yes/Yes
11/29 974 24 GRS No/No
12/30 2744 46 ASP Yes/Yes
Airport map: 
Aerial View: 

Accidents and Serious Incidents at or in the vicinity of KBZN

SKYbrary Partners:

Safety knowledge contributed by: